This demonstration page uses our WeatherBlox Daily Observations layout. Learn more.

36.19886, -115.1175

Hourly Observations for June 15, 2018

Temp ( °F °C ) Dew Point ( °F °C ) Humidity (%) Winds ( mph kmh ) Pressure ( in mb ) Visibility ( mi km ) Precip ( " mm )
12:53 am 00:53 Clear 88 31.1 22 -5.6 9 9 SSW 13 20 29.62 1003 10 16.09344 0 0
1:53 am 01:53 Clear 87 30.6 21 -6.1 9 9 S 12 19 29.62 1003 10 16.09344 0 0
2:53 am 02:53 Clear 87 30.6 25 -3.9 10 10 SW 15 24 29.59 1002 10 16.09344 0 0
3:53 am 03:53 Clear 85 29.4 28 -2.2 13 13 S 13 20 29.59 1002 10 16.09344 0 0
4:53 am 04:53 Clear 84 28.9 28 -2.2 13 13 SE 15 24 29.59 1002 10 16.09344 0 0
5:53 am 05:53 Sunny 84 28.9 30 -1.1 14 14 S 13 20 29.62 1003 10 16.09344 0 0
6:53 am 06:53 Sunny 85 29.4 34 1.1 16 16 S 13 20 29.65 1004 10 16.09344 0 0
7:53 am 07:53 Sunny 88 31.1 33 0.6 14 14 S 18 30 29.68 1005 10 16.09344 0 0
8:53 am 08:53 Sunny 89 31.7 28 -2.2 11 11 SSW 13 20 29.68 1005 10 16.09344 0 0
9:53 am 09:53 Sunny 92 33.3 21 -6.1 7 7 SSW 15 24 29.68 1005 10 16.09344 0 0
10:53 am 10:53 Sunny 93 33.9 25 -3.9 8 8 SSW 15 24 29.68 1005 10 16.09344 0 0
11:53 am 11:53 Sunny 98 36.7 26 -3.3 8 8 SSW 21 33 29.65 1004 10 16.09344 0 0
12:53 pm 12:53 Sunny 98 36.7 31 -0.6 9 9 SW 23 37 29.65 1004 10 16.09344 0 0
1:53 pm 13:53 Sunny 99 37.2 31 -0.6 9 9 WSW 18 30 29.62 1003 10 16.09344 0 0
2:53 pm 14:53 Sunny 98 36.7 30 -1.1 9 9 SW 23 37 29.59 1002 10 16.09344 0 0
3:53 pm 15:53 Sunny 98 36.7 27 -2.8 8 8 SSW 20 31 29.56 1001 10 16.09344 0 0
4:53 pm 16:53 Sunny 97 36.1 29 -1.7 9 9 SW 23 37 29.56 1001 10 16.09344 0 0
5:53 pm 17:53 Sunny 96 35.6 31 -0.6 10 10 SW 18 30 29.56 1001 10 16.09344 0 0
6:53 pm 18:53 Sunny 96 35.6 31 -0.6 10 10 SW 17 28 29.53 1000 10 16.09344 0 0
7:53 pm 19:53 Sunny 93 33.9 38 3.3 14 14 SW 21 33 29.53 1000 10 16.09344 0 0
8:53 pm 20:53 Clear 90 32.2 42 5.6 19 19 SSW 21 33 29.56 1001 10 16.09344 0 0
9:53 pm 21:53 Clear 88 31.1 48 8.9 25 25 SSW 18 30 29.59 1002 10 16.09344 0 0
10:53 pm 22:53 Clear 86 30 52 11.1 31 31 S 14 22 29.59 1002 10 16.09344 0 0
11:53 pm 23:53 Clear 85 29.4 49 9.4 29 29 SSW 14 22 29.59 1002 10 16.09344 0 0

Powered by AerisWeather